Wind_Speed
23 35 41 40 39 36 31 25 24 22 18 16 14 13 11 12 14 15 12 11 11 12 11 11 11 13 13 12 13 16 17 15 10 8 14 18 15 13 15 13 9 8 7
18 29 38 40 35 23 15 19 25 20 19 16 15 15 12 14 14 14 13 13 13 14 14 14 12 12 12 12 13 12 12 12 18 18 17 15 12 13 15 14 11 10 9
10 25 26 32 31 27 17 33 18 17 16 16 16 15 14 15 14 14 13 13 14 14 13 14 13 12 11 12 13 13 14 14 19 23 14 15 11 13 13 12 10 8 9
9 12 21 25 22 21 29 30 22 15 16 19 19 17 16 15 14 15 15 14 15 14 13 12 11 12 11 12 12 12 12 14 15 15 12 14 12 10 12 9 7 5 2
7 9 20 20 23 30 30 25 22 23 22 25 22 18 16 17 17 17 18 16 14 13 11 12 12 11 11 12 13 12 13 13 11 10 8 5 8 10 14 10 7 8 11
6 4 13 22 24 23 21 22 25 24 29 25 25 19 18 19 18 18 19 18 16 16 16 13 11 10 12 12 10 12 11 14 10 8 7 5 5 4 12 15 11 7 3
2 1 4 14 23 25 27 25 20 24 25 26 26 22 20 20 19 17 17 18 17 18 15 15 14 14 13 12 12 10 9 7 9 10 9 9 7 6 8 10 10 9 6
6 6 6 9 13 17 20 16 24 25 26 25 22 20 18 19 19 17 17 18 18 18 17 17 16 15 14 14 15 14 12 11 11 13 15 15 14 12 13 11 11 10 9
9 8 7 8 11 13 17 17 19 19 20 18 18 18 20 19 20 16 19 18 16 17 17 16 15 14 13 12 14 17 14 14 12 11 9 11 13 11 10 11 12 11 7
10 10 9 10 11 12 13 11 12 13 14 14 16 18 19 18 16 18 22 22 19 17 16 16 16 18 20 16 16 20 20 20 17 15 14 13 10 13 15 16 14 14 12
11 11 11 10 12 14 15 15 16 16 16 19 18 17 16 15 16 17 18 22 23 21 19 18 19 16 16 18 20 23 24 19 17 15 15 15 14 12 12 16 21 23 24
16 16 16 16 14 15 17 16 17 17 18 19 17 15 15 16 18 20 20 21 20 23 23 22 14 9 10 18 21 24 23 21 16 14 14 15 17 18 18 16 17 19 23
19 20 18 17 17 17 18 16 16 17 19 17 17 18 17 18 20 22 22 24 22 22 21 20 19 17 16 15 9 15 26 24 21 19 20 23 23 22 22 23 23 21 21
22 22 21 21 20 19 20 21 20 21 21 19 20 21 22 24 24 25 25 25 26 26 25 23 21 19 20 22 20 15 16 27 27 26 27 27 26 26 26 25 23 22 21
24 22 22 22 21 22 21 23 25 26 26 25 26 26 26 25 27 26 27 28 30 31 29 27 27 25 24 24 25 22 19 17 25 27 28 29 31 31 30 28 24 22 22
25 24 24 24 23 23 24 23 24 26 26 27 28 28 28 29 27 24 27 28 28 30 26 29 29 31 30 30 29 27 25 25 27 30 33 33 32 30 32 29 24 24 27
26 25 26 26 26 25 25 24 20 26 27 26 30 30 30 31 25 22 20 16 15 24 23 28 29 28 31 30 30 30 30 29 29 30 31 31 31 30 28 29 28 26 30
32 31 31 30 29 27 26 27 24 18 18 26 35 36 34 33 28 28 25 21 20 23 29 28 30 32 33 33 32 32 32 31 29 28 29 30 30 32 29 28 27 29 27
32 29 31 30 31 30 28 28 26 24 24 28 29 25 33 39 40 35 32 30 31 30 31 34 34 34 36 37 36 34 33 33 34 32 33 32 33 32 32 31 32 34 31
34 34 32 31 30 30 32 27 25 24 24 25 25 29 28 27 30 31 35 37 35 36 37 38 39 40 39 38 38 38 38 38 37 38 37 36 34 33 34 31 32 30 29
29 27 30 28 26 28 26 26 27 27 26 26 29 38 38 35 35 35 34 36 40 41 40 39 38 38 39 40 41 40 38 39 40 38 36 36 34 33 32 31 30 32 32
21 19 22 29 28 23 25 30 28 25 27 27 32 35 36 37 32 36 39 41 41 42 40 35 36 37 36 36 38 39 38 39 40 36 32 29 24 26 28 29 28 30 33
21 23 25 26 29 30 28 29 25 25 27 31 33 30 26 32 34 35 37 41 42 42 41 39 38 38 36 36 34 35 37 37 38 35 29 27 24 26 29 31 30 27 28
26 28 26 24 18 24 24 27 28 26 29 32 30 31 30 32 35 36 43 38 39 41 39 39 40 38 37 37 37 35 36 32 30 33 30 29 33 33 32 27 30 32 30
31 22 19 21 19 21 25 28 30 28 30 30 29 32 33 33 30 33 40 41 40 40 37 36 37 35 35 35 38 38 35 32 33 36 32 34 35 31 29 31 29 30 30
23 21 23 22 22 27 30 30 31 30 29 31 25 22 25 30 32 36 41 38 41 37 37 32 34 36 36 35 36 35 29 27 31 33 31 24 24 27 27 28 28 31 30
Wind_Direction
246 228 215 211 213 214 221 229 227 228 214 211 193 202 195 210 208 205 207 216 214 188 185 187 172 171 170 153 141 165 186 186 147 158 173 179 190 209 212 215 222 212 210
241 224 219 216 212 208 222 249 225 210 191 190 191 192 212 210 219 226 210 206 206 188 179 178 170 159 160 151 150 148 163 176 169 150 164 176 206 213 209 209 217 228 238
261 234 215 210 201 193 233 217 198 201 198 186 203 207 214 216 210 212 211 201 200 189 180 181 180 176 166 150 149 144 138 143 152 155 165 190 200 202 204 216 220 231 249
289 293 228 218 189 167 213 195 190 195 203 200 207 214 218 213 213 210 202 207 199 201 202 202 192 185 180 166 159 151 150 152 151 162 178 201 209 203 212 224 236 256 250
325 309 211 208 191 193 195 188 196 200 204 220 217 207 209 211 208 205 203 204 198 200 208 203 194 183 178 177 174 168 170 159 150 146 134 164 224 219 218 223 227 130 104
348 353 183 183 187 196 203 205 203 200 204 204 214 199 202 212 210 203 200 205 208 205 195 199 199 202 191 191 182 184 177 176 169 158 160 143 108 192 211 207 186 194 201
125 274 208 186 179 184 187 191 211 205 203 210 205 197 200 214 206 203 205 214 213 205 204 200 202 207 204 197 196 198 197 208 214 216 199 203 203 181 156 169 194 210 219
148 153 175 182 194 205 192 190 201 205 200 202 194 202 213 208 205 208 210 217 211 207 206 206 208 208 208 217 219 223 231 232 230 231 239 245 244 232 229 231 232 236 252
169 172 179 186 188 193 207 199 198 189 189 195 208 207 204 205 200 203 200 204 207 207 207 207 212 218 220 235 233 221 221 224 227 239 247 253 251 247 240 233 231 233 259
189 185 183 189 197 198 202 206 204 202 200 194 199 201 208 210 203 210 210 209 210 208 212 218 223 233 236 232 226 220 228 233 232 233 238 249 255 248 247 245 243 240 240
192 185 187 193 193 193 184 188 195 199 202 196 202 204 203 203 198 201 208 221 224 217 220 222 230 239 245 241 238 233 240 254 244 240 240 242 249 258 253 245 247 248 251
193 190 188 197 199 199 195 193 196 201 203 201 202 211 214 210 210 215 220 225 224 225 230 231 233 244 278 246 244 248 253 254 252 250 249 244 245 249 253 257 260 261 262
199 193 190 196 200 200 196 202 212 211 203 195 202 215 221 220 223 226 232 234 232 234 234 235 239 247 259 270 299 253 248 247 245 247 250 255 256 259 265 267 269 274 271
199 200 196 198 205 209 214 213 209 208 211 208 214 221 228 230 231 232 237 238 239 242 241 242 246 246 252 261 270 268 255 237 238 243 253 263 269 269 270 271 273 273 274
206 205 204 203 206 208 213 211 209 214 215 215 221 223 227 234 239 240 241 242 241 243 243 242 247 249 251 255 258 257 257 251 239 247 255 262 268 271 272 273 269 264 254
205 208 208 208 205 210 214 217 228 233 228 229 234 233 235 244 253 257 259 253 256 251 234 239 243 246 249 250 249 248 247 248 247 251 257 260 260 262 269 271 266 256 250
203 205 209 208 209 213 218 221 231 237 238 238 241 243 247 256 254 234 227 226 240 241 226 234 236 238 245 248 250 250 246 248 251 254 257 260 264 260 256 264 261 254 253
209 209 206 208 212 215 218 224 230 233 238 246 241 244 248 246 232 223 221 225 227 226 230 229 232 237 242 245 247 248 251 252 252 252 253 256 260 257 249 247 251 245 241
208 209 212 215 221 223 226 228 228 232 233 244 254 249 247 244 248 247 235 232 225 226 229 234 238 240 242 244 247 249 251 253 252 254 255 259 259 246 250 252 249 250 248
214 215 214 216 223 225 230 231 230 231 235 241 245 249 246 242 235 234 231 234 228 230 232 232 235 239 241 244 247 250 253 255 256 259 261 261 261 255 250 253 257 249 244
214 217 228 219 226 229 230 231 234 231 232 236 240 247 248 241 236 236 238 237 236 235 236 237 239 240 246 248 250 249 251 256 257 255 255 258 261 260 264 260 256 256 249
235 235 241 227 229 234 235 242 249 246 247 244 250 255 255 246 239 239 242 246 249 249 248 246 247 247 251 252 253 248 244 248 252 254 260 263 254 260 260 259 260 251 240
225 224 223 228 227 227 234 241 244 247 249 252 257 258 258 261 249 245 242 248 247 248 250 250 251 251 253 253 253 255 249 247 251 257 252 231 242 249 253 251 251 239 236
218 229 225 223 241 240 226 235 236 246 243 250 252 253 251 257 258 248 253 251 246 251 258 259 254 257 259 256 255 254 253 253 250 244 234 235 252 252 252 247 262 256 249
221 242 232 226 239 241 238 236 243 244 244 245 248 249 253 256 257 253 253 253 257 254 253 253 259 261 259 259 258 260 257 254 248 238 240 256 249 246 262 255 257 257 247
263 248 264 252 255 254 247 248 249 244 239 244 243 253 255 261 264 259 258 249 254 250 250 255 256 253 253 256 257 257 253 245 234 241 249 258 269 266 251 244 245 243 247
Height
754 755 755 755 759 765 770 772 779 780 779 783 785 789 790 796 799 800 802 806 806 805 811 814 815 816 817 816 814 815 817 819 822 827 830 833 836 837 838 839 840 841 842
747 747 749 751 756 768 768 764 778 782 776 781 785 788 791 792 796 800 799 803 806 807 808 812 816 816 817 817 816 817 817 817 817 823 829 831 834 836 837 839 840 840 840
748 747 747 747 751 756 762 758 771 783 780 778 786 787 788 790 791 794 798 801 805 806 808 810 813 814 816 816 817 818 816 818 819 821 827 831 834 835 836 837 838 839 839
746 744 745 746 749 744 755 765 771 770 777 779 785 785 788 789 790 793 795 799 802 806 807 810 810 813 815 815 816 816 817 819 820 823 826 829 831 832 834 835 836 836 835
744 742 741 743 747 750 755 756 757 764 765 782 782 781 784 786 787 790 793 797 799 803 807 810 811 812 812 814 815 816 817 818 820 822 825 828 828 829 830 833 834 835 835
741 741 739 741 744 747 746 750 754 762 771 772 776 777 779 784 784 787 790 794 797 800 804 806 809 812 812 813 815 816 817 817 818 821 823 825 826 827 828 830 831 832 834
739 740 741 743 745 747 749 753 757 761 763 765 768 772 775 779 782 785 788 791 796 799 801 803 806 810 811 812 814 815 815 816 817 819 821 823 824 826 827 828 830 831 831
737 738 741 741 743 744 748 754 755 756 758 761 765 770 773 776 780 783 786 791 794 796 798 800 802 805 806 809 811 812 813 814 816 816 818 819 821 823 826 827 828 829 829
737 737 740 742 742 742 744 749 750 753 756 758 762 766 770 773 777 781 785 789 793 794 795 797 799 801 803 805 807 809 811 812 814 814 815 816 817 820 822 823 823 825 824
737 736 738 741 742 743 745 746 748 751 753 756 762 765 769 772 775 779 782 787 789 791 792 794 796 798 800 802 804 805 807 808 810 811 811 812 813 814 816 818 820 821 822
735 736 738 740 742 744 744 747 750 753 756 759 762 766 768 770 772 777 780 784 785 786 789 792 794 795 797 798 800 801 801 804 805 806 806 806 807 808 810 812 814 816 817
732 733 737 740 741 744 745 747 749 751 755 757 761 764 767 768 771 774 777 780 781 782 784 787 789 790 791 791 794 795 797 799 801 801 801 801 802 803 805 807 808 809 810
732 732 733 738 741 743 744 745 747 751 752 754 758 761 763 766 768 771 774 776 777 778 780 782 784 785 787 788 788 789 791 793 795 796 797 798 798 799 800 801 802 803 803
729 732 733 735 738 741 742 744 745 748 751 753 756 758 759 762 765 767 768 769 771 772 773 776 779 782 783 783 784 784 784 786 789 790 791 792 793 794 794 795 796 796 797
725 728 731 732 736 739 740 741 743 745 747 749 751 753 756 758 758 759 761 762 762 763 767 771 774 776 777 778 778 779 780 781 783 784 785 786 786 786 786 787 789 790 791
720 723 727 730 731 735 737 739 741 742 744 746 747 749 750 750 751 752 753 753 753 757 761 763 765 767 769 769 770 771 772 773 775 777 777 777 777 778 778 780 783 784 784
715 719 722 725 728 730 733 735 736 737 739 740 741 743 744 744 745 746 747 748 750 752 754 755 757 758 759 761 762 763 763 764 766 768 769 770 771 771 773 773 772 774 775
709 713 716 718 721 723 726 728 730 733 733 731 732 733 736 738 740 741 743 744 744 744 745 746 747 748 750 751 753 754 755 757 758 759 760 761 762 761 763 763 764 763 763
701 706 710 712 715 717 720 722 724 725 726 726 726 728 727 730 733 735 737 737 735 735 736 737 738 740 741 742 744 746 747 749 750 751 751 751 751 753 753 754 753 753 753
692 695 701 704 709 712 714 716 717 718 719 719 719 718 719 721 722 723 724 725 726 725 726 727 728 730 731 734 735 737 739 740 741 741 741 741 743 744 744 745 745 744 743
684 689 695 699 701 704 707 708 709 710 710 710 709 709 709 710 711 713 713 713 715 716 716 717 718 719 720 723 724 725 726 727 728 728 728 729 732 733 733 733 734 734 736
681 680 687 692 695 698 699 700 701 702 701 701 701 702 702 703 703 703 703 702 702 703 704 705 706 706 707 709 711 713 714 715 717 718 720 722 724 724 724 724 722 722 720
676 678 680 683 685 688 690 691 694 693 692 691 693 693 694 694 694 693 691 690 691 692 693 694 695 695 696 697 698 699 701 701 704 707 706 708 710 710 710 711 711 706 707
664 668 670 672 679 681 682 682 680 680 682 682 683 682 682 683 681 681 681 681 682 682 683 682 683 683 684 685 686 687 688 691 692 693 696 697 697 696 697 699 699 696 693
661 665 665 666 670 673 674 673 671 671 673 673 673 674 673 673 673 673 668 668 668 667 668 670 671 672 673 674 675 675 678 681 681 684 686 687 687 688 690 689 687 687 686
659 659 661 662 663 665 664 662 662 662 663 664 666 667 665 664 663 661 659 657 657 656 659 658 658 660 660 661 664 666 667 669 673 679 682 683 681 682 682 682 680 679 678